Portada
METAR-TAF:

METAR-TAF

Aeroports :

El Papalon

San Miguel, El Salvador

latitud: 13-27N, longitud: 088-07W, altitud: 80 m

Observació

L'informe es va fer fa 54 minuts, a les 23:50 UTC
Vent 5 kt del Sud/Sud-Oest
Temperatura 30°C
Humitat 75%
Pressió 1009 hPa
Visibilitat 10 km o més
sense núvols per sota de 1500 mi sense presència de cumulonimbus.

METAR: MSSM 162350Z 20005KT CAVOK 30/25 Q1009 A2980

Hora: 18:44 (00:44 UTC)


TAF: manca

Observacions i pronòstics meteorològics de més de 4000 aeroports (METAR i TAF).

Les estacions disponibles són els punts grocs i vermells al mapa.

Posi el ratolí al punt desitjat per veure el nom de l'estació.

Feu clic per veure les observacions i els pronòstics meteorològics.

Per canviar el mapa: feu clic els botons verds amb una creu de color negre per apropar; al botó verd amb un guió per allunyar la imatge; o en les fletxes verdes per a mapes adjacents.


METAR-TAF: